格洛纳斯-742 COSMOS 1970 [GLONASS]

导读 | 星芒AI

COSMOS 1970 是苏联于1970年4月16日发射的 GLONASS 系统早期实验卫星,用于测试全球导航卫星系统的初步技术。该卫星是苏联发展自主卫星导航系统的重要一步,旨在为军事和民用用户提供定位、导航和时间服务。尽管其功能有限,但 COSMOS 1970 为后续 GLONASS 卫星的研制和部署奠定了基础,标志着苏联在与美国 GPS 系统竞争中的关键进展。

基本信息
目录编号:
19501
目录名称:
COSMOS 1970 (GLONASS)
国际标识:
1988-085A
轨道中心:
EARTH
卫星名称:
格洛纳斯-742
卫星全名:
格洛纳斯-742 COSMOS 1970 [GLONASS]
卫星状态:
在轨 (已飞行13560 天)
发射日期:
1988-09-16 UTC
国别 :
俄罗斯(独联体) (CIS)
星等 :
--
轨道信息
数据来源 国际轨道数据 AOE轨道数据
星历时间 2025-10-31T20:51:39+0800
17小时前
查看轨道信息
2025-10-31T04:00:00+0800
1天前
查看轨道信息
半长轴 25508.025km 25508.025km
偏心率 0.000828 0.0008265
轨道倾角 65.374° 65.375°
近地点辐角 37.889° 37.689°
升交点赤经 322.261° 322.285°
平近点角 143.553° 324.797°
近地点 19108.769km 19108.807km
远地点 19151.011km 19150.973km
周期 675.733分钟 675.733分钟
每日圈数 2.13102 2.13102
详细信息
平衡模式:
三轴稳定
覆盖范围:
全球
运营商:
列舍特涅夫卫星信息系统
运营商所在国:
俄罗斯
制造商(研发单位):
列舍特涅夫卫星信息系统
制造商所在国:
俄罗斯
使用方式:
暂无
卫星简介
格洛纳斯(GLONASS )是苏联/俄罗斯研制卫星导航系统。标准配置为24颗卫星,其中18颗卫星就能保证该系统为俄罗斯境内用户提供全部服务。该卫星已退役。
2D轨道图
3D轨道图
轨道高度分析图
轨道倾角分析图
轨道综合分析图
查看轨道综合分析图